Change the Weather History Date:

Sunday, September 1, 2013

  Actual Average Record
Temperature  
Mean Temperature 74 °F -  
Max Temperature 79 °F 81 °F 111 °F (1955)
Min Temperature 69 °F 63 °F 53 °F (1941)
Cooling Degree Days 8    
Growing Degree Days 24 (Base 50)    
Moisture  
Dew Point 65 °F    
Average Humidity 77    
Maximum Humidity 90    
Minimum Humidity 58    
Precipitation  
Precipitation 0.00 in - - ()
Sea Level Pressure  
Sea Level Pressure 29.90 in    
Wind  
Wind Speed 5 mph (SW)    
Max Wind Speed 10 mph    
Max Gust Speed -    
Visibility 10 miles    
Events      
Averages and records for this station are not official NWS values.
T = Trace of Precipitation, MM = Missing Value Source: NWS Daily Summary

Daily Weather History Graph

Daily Weather History Graph

Search for Another Location

Airport or City:

Trip Planner

Search our weather history database for the weather conditions in past years. The results will help you decide how hot, cold, wet, or windy it might be!

Date:

Astronomy

Sep. 01, 2013 Rise Set
Actual Time 6:27 AM PDT 7:19 PM PDT
Civil Twilight 6:02 AM PDT 7:44 PM PDT
Nautical Twilight 5:31 AM PDT 8:14 PM PDT
Astronomical Twilight 5:00 AM PDT 8:45 PM PDT
Moon 3:00 AM PDT 4:54 PM PDT
Length of Visible Light 13h 42m
Length of Day
12h 51m
Waning Crescent, 13% of the Moon is Illuminated
Sep 1
Waning Crescent
Sep 5
New
Sep 12
First Quarter
Sep 19
Full
Sep 26
Last Quarter

Hourly Weather History & Observations

Time (PDT) Temp. Dew Point Humidity Pressure Visibility Wind Dir Wind Speed Gust Speed Precip Events Conditions
12:51 AM 71.1 °F 64.0 °F 78% 29.92 in 10.0 mi SW 5.8 mph - N/A   Clear
1:51 AM 71.1 °F 64.9 °F 81% 29.91 in 10.0 mi WSW 4.6 mph - N/A   Clear
2:51 AM 71.1 °F 64.9 °F 81% 29.91 in 10.0 mi SSW 3.5 mph - N/A   Clear
3:51 AM 70.0 °F 64.9 °F 84% 29.91 in 10.0 mi SW 3.5 mph - N/A   Clear
4:09 AM 69.8 °F 64.4 °F 83% 29.91 in 10.0 mi Calm Calm - N/A   Scattered Clouds
4:51 AM 70.0 °F 64.9 °F 84% 29.90 in 10.0 mi Calm Calm - N/A   Clear
5:51 AM 70.0 °F 64.9 °F 84% 29.91 in 10.0 mi Calm Calm - N/A   Clear
6:51 AM 70.0 °F 64.9 °F 84% 29.92 in 10.0 mi Calm Calm - N/A   Clear
7:51 AM 71.1 °F 66.0 °F 84% 29.93 in 10.0 mi Calm Calm - N/A   Clear
8:51 AM 73.9 °F 64.9 °F 73% 29.94 in 10.0 mi SW 6.9 mph - N/A   Clear
9:51 AM 75.0 °F 66.0 °F 73% 29.94 in 10.0 mi SSW 4.6 mph - N/A   Clear
10:51 AM 75.9 °F 63.0 °F 64% 29.94 in 10.0 mi WSW 6.9 mph - N/A   Clear
11:51 AM 75.0 °F 63.0 °F 66% 29.93 in 10.0 mi West 6.9 mph - N/A   Clear
12:51 PM 78.1 °F 64.0 °F 62% 29.91 in 10.0 mi Variable 6.9 mph - N/A   Clear
1:51 PM 78.1 °F 62.1 °F 58% 29.91 in 10.0 mi SW 10.4 mph - N/A   Clear
2:51 PM 75.9 °F 63.0 °F 64% 29.89 in 10.0 mi West 8.1 mph - N/A   Clear
3:51 PM 77.0 °F 64.9 °F 66% 29.87 in 10.0 mi WSW 8.1 mph - N/A   Clear
4:51 PM 75.0 °F 66.0 °F 73% 29.86 in 10.0 mi WSW 9.2 mph - N/A   Clear
5:51 PM 73.0 °F 64.9 °F 76% 29.85 in 10.0 mi WSW 10.4 mph - N/A   Mostly Cloudy
6:51 PM 72.0 °F 64.9 °F 78% 29.86 in 10.0 mi WSW 5.8 mph - N/A   Clear
7:51 PM 70.0 °F 64.0 °F 81% 29.87 in 10.0 mi Variable 5.8 mph - N/A   Clear
8:51 PM 70.0 °F 64.9 °F 84% 29.88 in 10.0 mi WSW 4.6 mph - N/A   Clear
9:51 PM 70.0 °F 64.9 °F 84% 29.90 in 10.0 mi SSW 4.6 mph - N/A   Clear
9:58 PM 69.8 °F 64.4 °F 83% 29.91 in 10.0 mi South 4.6 mph - N/A   Partly Cloudy
10:51 PM 69.1 °F 64.9 °F 87% 29.90 in 10.0 mi Calm Calm - N/A   Clear
11:38 PM 69.8 °F 64.4 °F 83% 29.90 in 10.0 mi South 4.6 mph - N/A   Partly Cloudy
11:51 PM 69.1 °F 66.0 °F 90% 29.90 in 10.0 mi South 3.5 mph - N/A   Mostly Cloudy